Flag for Canada Weather past 2 weeks in Strathcona County, Alberta, Canada

Now
82 °F

Sunny.


Feels Like: 83 °F
Forecast: 57 / 83 °F
Wind: 9 mph from South

Location: Edmonton Municipal

Current Time: Jul 28, 2014 at 7:22:05 PM

Latest Report: Jul 28, 2014 at 6:00 PM


Visibility: 9 mi

Pressure: 30.11 "Hg

Humidity: 48%

Dew point: 61 °F

Location of Strathcona CountyLocation

Historic Weather in Strathcona County — Graph

°F

Strathcona County temperature yesterday

Maximum temperature yesterday: 79 °F (at 4:00 PM)
Minimum temperature yesterday: 50 °F (at 5:00 AM)
Average temperature yesterday: 66 °F

Past Weeks' High & Low Weather Summary

 TemperatureHumidityPressure
High84 °F (Jul 15, 3:00 PM)94% (Jul 25, 2:00 AM)30.27 "Hg (Jul 25, 2:00 AM)
Low50 °F (Jul 21, 5:00 AM)28% (Jul 24, 5:00 PM)29.48 "Hg (Jul 25, 7:54 AM)
Average65 °F66%29.90 "Hg
* Reported Jul 13 6:00 PM — Jul 28 6:00 PM, Strathcona County, Weather by CustomWeather, © 2014

Note: Actual official high and low records may vary slightly from our data, if they occured in-between our weather recording intervals... More about our weather records

Advertising

Strathcona County weather history for previous 24 hours

 ConditionsComfort  
Time TempWeatherWind HumidityBarometerVisibility
6:00 PM
Jul 28
82 °FSunny.9 mph48%30.11 "Hg9 mi
5:00 PM82 °FPassing clouds.10 mph48%30.13 "Hg9 mi
4:00 PM82 °FSunny.15 mph42%30.14 "Hg9 mi
3:00 PM82 °FSunny.9 mph42%30.14 "Hg9 mi
2:00 PM82 °FSunny.10 mph45%30.16 "Hg9 mi
1:00 PM81 °FSunny.10 mph45%30.16 "Hg9 mi
12:00 PM79 °FSunny.8 mph51%30.18 "Hg9 mi
11:00 AM77 °FSunny.8 mph54%30.19 "Hg9 mi
10:00 AM72 °FSunny.5 mph65%30.20 "Hg9 mi
9:00 AM70 °FSunny.5 mph64%30.22 "Hg9 mi
8:00 AM66 °FSunny.No wind68%30.21 "Hg9 mi
7:00 AM63 °FSunny.5 mph77%30.21 "Hg9 mi
6:00 AM61 °FClear.2 mph77%30.20 "Hg9 mi
5:00 AM61 °FClear.6 mph77%30.19 "Hg9 mi
4:00 AM64 °FPassing clouds.3 mph68%30.19 "Hg9 mi
3:00 AM64 °FClear.6 mph73%30.18 "Hg9 mi
2:00 AM64 °FClear.2 mph73%30.19 "Hg9 mi
1:00 AM64 °FClear.6 mph73%30.19 "Hg9 mi
12:00 AM66 °FClear.8 mph73%30.19 "Hg9 mi
11:00 PM
Jul 27
68 °FClear.6 mph64%30.19 "Hg9 mi
10:00 PM70 °FSunny.5 mph60%30.19 "Hg9 mi
9:00 PM72 °FPassing clouds.9 mph53%30.18 "Hg9 mi
8:00 PM75 °FScattered clouds.6 mph47%30.17 "Hg9 mi
7:00 PM77 °FScattered clouds.7 mph42%30.18 "Hg9 mi
Weather by CustomWeather, © 2014

See weather overviewHow to use our weather pages